WUK2UB LFBD-EGGW

Flight info

Callsign WUK2UB
Flight time 1h 17m
Altitude 34000
Route CNA DCT TUPAR UN861 DIKRO UM185 TELTU
Aircraft A321/M-SDE3FGHIRWY/LB1

Departure

Time 2026-04-27 14:56
Airport Bordeaux–Mérignac Airport (LFBD)

Arrival

Time 2026-04-27 16:14
Airport London Luton Airport (EGGW)
Time Latitude Longitude Altitude Speed Heading
2026-04-27 14:01 44.83396 -0.70159 168 ft 0 kts 134°
2026-04-27 14:46 44.83401 -0.70165 160 ft 4 kts 136°
2026-04-27 14:47 44.83420 -0.70181 160 ft 4 kts 189°
2026-04-27 14:47 44.83442 -0.70166 160 ft 4 kts 224°
2026-04-27 14:47 44.83448 -0.70157 160 ft 0 kts 225°
2026-04-27 14:49 44.83447 -0.70159 160 ft 1 kts 225°
2026-04-27 14:50 44.83439 -0.70171 160 ft 3 kts 225°
2026-04-27 14:50 44.83421 -0.70196 160 ft 4 kts 225°
2026-04-27 14:50 44.83395 -0.70232 161 ft 6 kts 225°
2026-04-27 14:50 44.83361 -0.70281 161 ft 8 kts 232°
2026-04-27 14:51 44.83366 -0.70341 161 ft 7 kts 278°
2026-04-27 14:51 44.83343 -0.70403 160 ft 8 kts 226°
2026-04-27 14:51 44.83301 -0.70463 160 ft 9 kts 225°
2026-04-27 14:51 44.83268 -0.70509 160 ft 10 kts 225°
2026-04-27 14:52 44.83194 -0.70615 161 ft 12 kts 225°
2026-04-27 14:52 44.83130 -0.70707 161 ft 14 kts 225°
2026-04-27 14:52 44.83058 -0.70810 161 ft 15 kts 225°
2026-04-27 14:52 44.82979 -0.70923 161 ft 17 kts 225°
2026-04-27 14:53 44.82889 -0.71050 158 ft 20 kts 226°
2026-04-27 14:53 44.82789 -0.71198 155 ft 22 kts 226°
2026-04-27 14:53 44.82683 -0.71346 159 ft 21 kts 225°
2026-04-27 14:53 44.82578 -0.71490 161 ft 22 kts 225°
2026-04-27 14:54 44.82471 -0.71644 163 ft 23 kts 225°
2026-04-27 14:54 44.82351 -0.71811 161 ft 25 kts 225°
2026-04-27 14:54 44.82219 -0.71996 158 ft 28 kts 225°
2026-04-27 14:54 44.82096 -0.72184 159 ft 25 kts 237°
2026-04-27 14:55 44.82077 -0.72386 159 ft 18 kts 289°
2026-04-27 14:55 44.82143 -0.72495 161 ft 12 kts 317°
2026-04-27 14:55 44.82193 -0.72497 161 ft 7 kts 44°
2026-04-27 14:55 44.82221 -0.72458 160 ft 8 kts 45°
2026-04-27 14:56 44.82353 -0.72271 158 ft 61 kts 46°
2026-04-27 14:56 44.82828 -0.71588 162 ft 131 kts 45°
2026-04-27 14:56 44.83591 -0.70487 260 ft 175 kts 44°
2026-04-27 14:56 44.84441 -0.69235 970 ft 178 kts 44°
2026-04-27 14:57 44.85317 -0.67976 1775 ft 184 kts 43°
2026-04-27 14:57 44.86241 -0.66681 2458 ft 189 kts 43°
2026-04-27 14:57 44.87192 -0.65347 3082 ft 198 kts 43°
2026-04-27 14:57 44.88177 -0.63959 3705 ft 203 kts 43°
2026-04-27 14:58 44.89199 -0.62487 4133 ft 221 kts 44°
2026-04-27 14:58 44.90351 -0.60828 4417 ft 250 kts 44°
2026-04-27 14:58 44.91598 -0.59029 5067 ft 261 kts 45°
2026-04-27 14:58 44.92929 -0.57240 5793 ft 269 kts 34°
2026-04-27 14:59 44.94659 -0.56194 6491 ft 276 kts
2026-04-27 14:59 44.96593 -0.56004 7194 ft 281 kts
2026-04-27 14:59 44.98559 -0.55901 8006 ft 284 kts
2026-04-27 14:59 45.00547 -0.55802 8818 ft 287 kts
2026-04-27 15:00 45.02557 -0.55699 9643 ft 291 kts
2026-04-27 15:00 45.04594 -0.55590 10379 ft 297 kts
2026-04-27 15:00 45.06735 -0.55480 10631 ft 320 kts 359°
2026-04-27 15:00 45.09043 -0.55536 10843 ft 342 kts 357°
2026-04-27 15:01 45.11452 -0.55699 11378 ft 351 kts 355°
2026-04-27 15:01 45.13904 -0.55913 12063 ft 355 kts 355°
2026-04-27 15:01 45.16384 -0.56143 12766 ft 359 kts 355°
2026-04-27 15:01 45.18896 -0.56371 13483 ft 363 kts 355°
2026-04-27 15:02 45.21437 -0.56590 14169 ft 368 kts 355°
2026-04-27 15:02 45.24004 -0.56797 14807 ft 372 kts 355°
2026-04-27 15:02 45.26602 -0.56998 15448 ft 376 kts 355°
2026-04-27 15:02 45.29231 -0.57198 16085 ft 380 kts 355°
2026-04-27 15:03 45.31888 -0.57399 16706 ft 384 kts 355°
2026-04-27 15:03 45.34568 -0.57603 17334 ft 388 kts 355°
2026-04-27 15:03 45.37285 -0.57811 17948 ft 393 kts 354°
2026-04-27 15:03 45.40029 -0.58025 18549 ft 397 kts 354°
2026-04-27 15:04 45.42802 -0.58244 19084 ft 401 kts 354°
2026-04-27 15:04 45.45595 -0.58468 19620 ft 404 kts 354°
2026-04-27 15:04 45.48419 -0.58694 20165 ft 408 kts 354°
2026-04-27 15:04 45.51270 -0.58922 20725 ft 412 kts 354°
2026-04-27 15:05 45.54142 -0.59152 21270 ft 416 kts 354°
2026-04-27 15:05 45.57044 -0.59385 21805 ft 419 kts 354°
2026-04-27 15:05 45.59972 -0.59620 22322 ft 423 kts 354°
2026-04-27 15:05 45.62926 -0.59858 22822 ft 427 kts 354°
2026-04-27 15:06 45.65907 -0.60095 23303 ft 431 kts 354°
2026-04-27 15:06 45.68912 -0.60330 23774 ft 434 kts 354°
2026-04-27 15:06 45.71901 -0.60563 24170 ft 437 kts 354°
2026-04-27 15:06 45.74949 -0.60803 24581 ft 440 kts 354°
2026-04-27 15:07 45.78018 -0.61045 25001 ft 443 kts 353°
2026-04-27 15:07 45.81105 -0.61289 25406 ft 445 kts 353°
2026-04-27 15:07 45.84209 -0.61537 25816 ft 448 kts 353°
2026-04-27 15:07 45.87333 -0.61788 26212 ft 451 kts 353°
2026-04-27 15:08 45.90478 -0.62040 26609 ft 454 kts 353°
2026-04-27 15:08 45.93641 -0.62294 26998 ft 456 kts 353°
2026-04-27 15:08 45.96819 -0.62549 27379 ft 459 kts 353°
2026-04-27 15:08 46.00021 -0.62805 27751 ft 462 kts 352°
2026-04-27 15:09 46.03239 -0.63062 28127 ft 465 kts 352°
2026-04-27 15:09 46.06472 -0.63321 28489 ft 467 kts 352°
2026-04-27 15:09 46.09733 -0.63581 28828 ft 470 kts 352°
2026-04-27 15:09 46.13006 -0.63846 29192 ft 473 kts 352°
2026-04-27 15:10 46.16304 -0.64114 29547 ft 475 kts 352°
2026-04-27 15:10 46.19621 -0.64381 29909 ft 478 kts 352°
2026-04-27 15:10 46.22946 -0.64648 30253 ft 481 kts 351°
2026-04-27 15:10 46.26296 -0.64919 30630 ft 481 kts 351°
2026-04-27 15:11 46.29632 -0.65189 31051 ft 480 kts 351°
2026-04-27 15:11 46.32966 -0.65459 31472 ft 480 kts 351°
2026-04-27 15:11 46.36298 -0.65725 31893 ft 479 kts 351°
2026-04-27 15:11 46.39621 -0.65991 32312 ft 478 kts 351°
2026-04-27 15:12 46.42939 -0.66262 32741 ft 477 kts 351°
2026-04-27 15:12 46.46243 -0.66638 33142 ft 475 kts 349°
2026-04-27 15:12 46.49526 -0.67150 33563 ft 473 kts 347°
2026-04-27 15:12 46.52787 -0.67748 33965 ft 472 kts 347°
2026-04-27 15:13 46.56047 -0.68380 34115 ft 471 kts 346°
2026-04-27 15:13 46.59234 -0.68988 34137 ft 466 kts 347°
2026-04-27 15:13 46.65645 -0.70122 34142 ft 463 kts 347°
2026-04-27 15:14 46.72049 -0.71183 34151 ft 462 kts 347°
2026-04-27 15:14 46.78440 -0.72243 34143 ft 462 kts 347°
2026-04-27 15:15 46.84822 -0.73326 34157 ft 462 kts 347°
2026-04-27 15:15 46.91204 -0.74414 34160 ft 461 kts 347°
2026-04-27 15:16 46.96503 -0.75326 34159 ft 461 kts 347°
2026-04-27 15:16 47.02876 -0.76412 34168 ft 461 kts 347°
2026-04-27 15:17 47.09252 -0.77491 34165 ft 461 kts 347°
2026-04-27 15:17 47.15618 -0.78589 34175 ft 461 kts 347°
2026-04-27 15:18 47.21988 -0.79687 34169 ft 461 kts 347°
2026-04-27 15:18 47.28359 -0.80795 34164 ft 461 kts 347°
2026-04-27 15:19 47.34731 -0.81893 34166 ft 461 kts 347°
2026-04-27 15:19 47.41102 -0.82989 34167 ft 461 kts 347°
2026-04-27 15:20 47.47484 -0.84094 34163 ft 462 kts 348°
2026-04-27 15:20 47.53866 -0.85200 34164 ft 462 kts 348°
2026-04-27 15:21 47.60278 -0.86118 34166 ft 464 kts 350°
2026-04-27 15:21 47.66721 -0.86828 34169 ft 465 kts 351°
2026-04-27 15:22 47.73172 -0.87543 34177 ft 465 kts 351°
2026-04-27 15:22 47.79615 -0.88325 34179 ft 465 kts 350°
2026-04-27 15:23 47.86054 -0.89139 34180 ft 465 kts 351°
2026-04-27 15:23 47.92503 -0.89936 34169 ft 465 kts 351°
2026-04-27 15:24 47.98908 -0.90721 34169 ft 465 kts 351°
2026-04-27 15:24 48.05359 -0.91528 34169 ft 465 kts 351°
2026-04-27 15:25 48.11809 -0.92324 34175 ft 465 kts 351°
2026-04-27 15:25 48.18257 -0.93113 34178 ft 465 kts 351°
2026-04-27 15:26 48.24700 -0.93922 34184 ft 465 kts 351°
2026-04-27 15:26 48.31142 -0.94731 34193 ft 465 kts 351°
2026-04-27 15:27 48.37587 -0.95540 34197 ft 465 kts 351°
2026-04-27 15:27 48.44038 -0.96352 34202 ft 465 kts 352°
2026-04-27 15:28 48.50444 -0.97156 34202 ft 465 kts 352°
2026-04-27 15:28 48.56889 -0.97976 34207 ft 465 kts 352°
2026-04-27 15:29 48.63339 -0.98794 34207 ft 465 kts 352°
2026-04-27 15:29 48.69790 -0.99611 34219 ft 465 kts 352°
2026-04-27 15:30 48.76237 -1.00435 34219 ft 465 kts 352°
2026-04-27 15:30 48.82678 -1.01256 34226 ft 465 kts 352°
2026-04-27 15:31 48.89120 -1.02073 34229 ft 464 kts 352°
2026-04-27 15:31 48.95556 -1.02894 34241 ft 464 kts 352°
2026-04-27 15:32 49.01983 -1.03724 34249 ft 463 kts 352°
2026-04-27 15:32 49.08424 -1.03666 34257 ft 465 kts
2026-04-27 15:33 49.14849 -1.02529 34260 ft 465 kts
2026-04-27 15:33 49.21263 -1.01390 34258 ft 463 kts
2026-04-27 15:34 49.27619 -1.00262 34269 ft 462 kts
2026-04-27 15:34 49.33998 -0.99133 34270 ft 461 kts
2026-04-27 15:35 49.40359 -0.98006 34275 ft 459 kts
2026-04-27 15:35 49.46693 -0.96879 34276 ft 457 kts
2026-04-27 15:36 49.53006 -0.95756 34283 ft 455 kts
2026-04-27 15:36 49.59290 -0.94628 34290 ft 453 kts
2026-04-27 15:37 49.65543 -0.93488 34292 ft 452 kts
2026-04-27 15:37 49.71779 -0.92356 34287 ft 450 kts
2026-04-27 15:38 49.77991 -0.91235 34288 ft 449 kts
2026-04-27 15:38 49.84160 -0.90109 34285 ft 438 kts
2026-04-27 15:39 49.87108 -0.89567 34174 ft 427 kts
2026-04-27 15:39 49.90063 -0.89023 33868 ft 419 kts
2026-04-27 15:39 49.92903 -0.88502 33479 ft 414 kts
2026-04-27 15:39 49.95743 -0.87982 33078 ft 409 kts
2026-04-27 15:40 49.98552 -0.87473 32689 ft 404 kts
2026-04-27 15:40 50.01332 -0.86982 32306 ft 399 kts
2026-04-27 15:40 50.04077 -0.86554 31930 ft 394 kts
2026-04-27 15:40 50.06796 -0.86174 31568 ft 390 kts
2026-04-27 15:41 50.09479 -0.85816 31200 ft 385 kts
2026-04-27 15:41 50.12137 -0.85465 30847 ft 381 kts
2026-04-27 15:41 50.14759 -0.85115 30510 ft 376 kts
2026-04-27 15:41 50.17346 -0.84758 30155 ft 372 kts
2026-04-27 15:42 50.19909 -0.84396 29754 ft 368 kts
2026-04-27 15:42 50.22448 -0.84029 29349 ft 365 kts
2026-04-27 15:42 50.24968 -0.83664 28940 ft 362 kts
2026-04-27 15:42 50.27465 -0.83302 28546 ft 359 kts
2026-04-27 15:43 50.29944 -0.82942 28151 ft 357 kts
2026-04-27 15:43 50.32407 -0.82587 27754 ft 354 kts
2026-04-27 15:43 50.34853 -0.82236 27350 ft 352 kts
2026-04-27 15:43 50.37283 -0.81885 26943 ft 349 kts
2026-04-27 15:44 50.39696 -0.81536 26539 ft 347 kts
2026-04-27 15:44 50.42095 -0.81187 26131 ft 345 kts
2026-04-27 15:44 50.44480 -0.80838 25723 ft 343 kts
2026-04-27 15:44 50.46855 -0.80491 25305 ft 342 kts
2026-04-27 15:45 50.49219 -0.80146 24879 ft 340 kts
2026-04-27 15:45 50.51571 -0.79806 24467 ft 339 kts
2026-04-27 15:45 50.53919 -0.79471 24055 ft 338 kts
2026-04-27 15:45 50.56255 -0.79135 23605 ft 337 kts
2026-04-27 15:46 50.58584 -0.78798 23142 ft 335 kts
2026-04-27 15:46 50.60906 -0.78462 22695 ft 334 kts
2026-04-27 15:46 50.63181 -0.78131 22247 ft 332 kts
2026-04-27 15:46 50.65477 -0.77792 21822 ft 330 kts
2026-04-27 15:47 50.67758 -0.77453 21369 ft 329 kts
2026-04-27 15:47 50.70029 -0.77117 20938 ft 327 kts
2026-04-27 15:47 50.72292 -0.76782 20510 ft 326 kts
2026-04-27 15:47 50.74543 -0.76454 20095 ft 324 kts
2026-04-27 15:48 50.76785 -0.76128 19687 ft 323 kts
2026-04-27 15:48 50.79018 -0.75802 19284 ft 322 kts
2026-04-27 15:48 50.81235 -0.75311 18893 ft 323 kts 13°
2026-04-27 15:49 50.85426 -0.72742 18049 ft 322 kts 19°
2026-04-27 15:49 50.87499 -0.71400 17641 ft 321 kts 19°
2026-04-27 15:49 50.89561 -0.70063 17242 ft 319 kts 19°
2026-04-27 15:49 50.91609 -0.68736 16866 ft 317 kts 19°
2026-04-27 15:50 50.93648 -0.67418 16487 ft 315 kts 19°
2026-04-27 15:50 50.95672 -0.66113 16116 ft 313 kts 19°
2026-04-27 15:50 50.97686 -0.64813 15746 ft 311 kts 19°
2026-04-27 15:50 50.99686 -0.63519 15398 ft 309 kts 19°
2026-04-27 15:51 51.01649 -0.62250 15040 ft 308 kts 19°
2026-04-27 15:51 51.03621 -0.60969 14695 ft 306 kts 19°
2026-04-27 15:51 51.05579 -0.59695 14353 ft 304 kts 19°
2026-04-27 15:51 51.07530 -0.58427 14021 ft 302 kts 19°
2026-04-27 15:52 51.09185 -0.57353 13694 ft 300 kts 19°
2026-04-27 15:52 51.11140 -0.56085 13320 ft 298 kts 19°
2026-04-27 15:52 51.13027 -0.54858 12972 ft 295 kts 19°
2026-04-27 15:52 51.14921 -0.53624 12632 ft 293 kts 19°
2026-04-27 15:53 51.16800 -0.52396 12279 ft 291 kts 19°
2026-04-27 15:53 51.18665 -0.51175 11940 ft 289 kts 19°
2026-04-27 15:53 51.20516 -0.49961 11610 ft 287 kts 19°
2026-04-27 15:53 51.22355 -0.48757 11277 ft 284 kts 19°
2026-04-27 15:54 51.24181 -0.47561 10932 ft 283 kts 19°
2026-04-27 15:54 51.25995 -0.46373 10633 ft 281 kts 19°
2026-04-27 15:54 51.27796 -0.45193 10325 ft 279 kts 20°
2026-04-27 15:54 51.29581 -0.44022 10230 ft 277 kts 20°
2026-04-27 15:55 51.31371 -0.42847 10253 ft 279 kts 20°
2026-04-27 15:55 51.32584 -0.42049 10245 ft 279 kts 20°
2026-04-27 15:55 51.34965 -0.40480 10247 ft 280 kts 20°
2026-04-27 15:55 51.36763 -0.39297 10248 ft 279 kts 20°
2026-04-27 15:56 51.38586 -0.38100 10251 ft 280 kts 20°
2026-04-27 15:56 51.40385 -0.36918 10256 ft 280 kts 20°
2026-04-27 15:56 51.42188 -0.35729 10251 ft 280 kts 20°
2026-04-27 15:56 51.43982 -0.34528 10255 ft 281 kts 21°
2026-04-27 15:57 51.45762 -0.33232 10248 ft 281 kts 22°
2026-04-27 15:57 51.47510 -0.31894 10258 ft 282 kts 23°
2026-04-27 15:57 51.49273 -0.30520 10255 ft 282 kts 23°
2026-04-27 15:57 51.51040 -0.29138 10252 ft 282 kts 23°
2026-04-27 15:58 51.52805 -0.27767 10260 ft 282 kts 23°
2026-04-27 15:58 51.54574 -0.26397 10258 ft 282 kts 23°
2026-04-27 15:58 51.56350 -0.25026 10269 ft 283 kts 23°
2026-04-27 15:58 51.58121 -0.23663 10265 ft 282 kts 23°
2026-04-27 15:59 51.59894 -0.22300 10306 ft 282 kts 22°
2026-04-27 15:59 51.61521 -0.21050 10319 ft 283 kts 22°
2026-04-27 15:59 51.63297 -0.19683 10319 ft 282 kts 22°
2026-04-27 15:59 51.65069 -0.18319 10318 ft 283 kts 22°
2026-04-27 16:00 51.66846 -0.16954 10313 ft 282 kts 22°
2026-04-27 16:00 51.68018 -0.16051 10328 ft 283 kts 23°
2026-04-27 16:00 51.70395 -0.14220 10322 ft 283 kts 23°
2026-04-27 16:00 51.72169 -0.12848 10319 ft 283 kts 22°
2026-04-27 16:01 51.73827 -0.11563 10313 ft 283 kts 24°
2026-04-27 16:01 51.75470 -0.09794 10317 ft 286 kts 38°
2026-04-27 16:01 51.76879 -0.07513 10151 ft 287 kts 43°
2026-04-27 16:01 51.78236 -0.05219 10012 ft 286 kts 43°
2026-04-27 16:02 51.79608 -0.02903 9877 ft 285 kts 43°
2026-04-27 16:02 51.80982 -0.00590 9709 ft 285 kts 43°
2026-04-27 16:02 51.82356 0.01718 9573 ft 284 kts 43°
2026-04-27 16:02 51.83725 0.04018 9441 ft 284 kts 43°
2026-04-27 16:03 51.85180 0.06148 9299 ft 280 kts 29°
2026-04-27 16:03 51.86959 0.07283 9175 ft 274 kts
2026-04-27 16:03 51.88213 0.07381 9088 ft 272 kts 353°
2026-04-27 16:03 51.90019 0.06570 8942 ft 270 kts 332°
2026-04-27 16:04 51.91494 0.04736 8829 ft 269 kts 310°
2026-04-27 16:04 51.92435 0.02136 8689 ft 270 kts 289°
2026-04-27 16:04 51.92739 -0.00865 8562 ft 272 kts 274°
2026-04-27 16:04 51.92830 -0.03926 8434 ft 272 kts 274°
2026-04-27 16:05 51.92917 -0.06988 8303 ft 272 kts 274°
2026-04-27 16:05 51.93003 -0.10046 8175 ft 271 kts 274°
2026-04-27 16:05 51.93088 -0.13041 8042 ft 262 kts 274°
2026-04-27 16:05 51.93170 -0.15939 7833 ft 255 kts 274°
2026-04-27 16:06 51.93249 -0.18747 7519 ft 241 kts 274°
2026-04-27 16:06 51.93321 -0.21394 7230 ft 233 kts 275°
2026-04-27 16:06 51.93395 -0.24023 6949 ft 233 kts 274°
2026-04-27 16:06 51.93466 -0.26639 6623 ft 232 kts 274°
2026-04-27 16:07 51.93535 -0.29208 6230 ft 223 kts 275°
2026-04-27 16:07 51.93602 -0.31662 5844 ft 214 kts 275°
2026-04-27 16:07 51.93667 -0.34030 5369 ft 206 kts 275°
2026-04-27 16:07 51.93726 -0.36296 4871 ft 198 kts 275°
2026-04-27 16:08 51.93783 -0.38489 4436 ft 189 kts 275°
2026-04-27 16:08 51.93835 -0.40544 4183 ft 178 kts 276°
2026-04-27 16:08 51.93889 -0.42525 3944 ft 174 kts 276°
2026-04-27 16:08 51.93942 -0.44435 3684 ft 166 kts 275°
2026-04-27 16:09 51.93990 -0.46260 3451 ft 159 kts 276°
2026-04-27 16:09 51.93862 -0.49810 2939 ft 159 kts 256°
2026-04-27 16:09 51.93376 -0.51426 2724 ft 162 kts 238°
2026-04-27 16:10 51.91612 -0.53654 2358 ft 164 kts 202°
2026-04-27 16:10 51.89369 -0.53882 2135 ft 165 kts 169°
2026-04-27 16:11 51.88239 -0.53568 2096 ft 164 kts 171°
2026-04-27 16:11 51.86329 -0.52087 2098 ft 153 kts 130°
2026-04-27 16:12 51.85569 -0.49012 1877 ft 147 kts 91°
2026-04-27 16:12 51.85667 -0.47396 1705 ft 143 kts 71°
2026-04-27 16:12 51.86161 -0.44310 1367 ft 141 kts 70°
2026-04-27 16:13 51.86432 -0.42803 1152 ft 138 kts 71°
2026-04-27 16:13 51.86945 -0.39839 747 ft 137 kts 72°
2026-04-27 16:13 51.87200 -0.38366 552 ft 135 kts 71°
2026-04-27 16:14 51.87527 -0.36479 523 ft 42 kts 75°
2026-04-27 16:14 51.87622 -0.35950 516 ft 13 kts 59°
2026-04-27 16:15 51.87779 -0.36011 517 ft 14 kts 298°
2026-04-27 16:15 51.87740 -0.36326 518 ft 16 kts 253°
2026-04-27 16:16 51.87692 -0.36603 521 ft 11 kts 255°
2026-04-27 16:16 51.87650 -0.36844 525 ft 11 kts 255°
2026-04-27 16:17 51.87774 -0.37000 517 ft 16 kts 344°
2026-04-27 16:17 51.88008 -0.37127 509 ft 14 kts 341°
2026-04-27 16:18 51.88017 -0.37335 508 ft 5 kts 246°
2026-04-27 16:18 51.87977 -0.37335 508 ft 2 kts 163°
2026-04-27 16:19 51.87972 -0.37332 508 ft 0 kts 161°
2026-04-27 16:19 51.87967 -0.37330 508 ft 1 kts 161°
2026-04-27 16:20 51.87957 -0.37324 508 ft 0 kts 161°